User: anonymous   Login
Location: Meriden
(44.0740°N, 93.3870°W)
Time: 03:49:54
(UTC-05:00)
Language:

AO-27 - Orbit

View from above orbital plane
View from above orbital plane
View from above satellite
View from above satellite

Ground track
Ground track

The orbit data is extracted from the following two-line orbital elements,

1 22825U 93061C   15242.46019425  .00000023  00000-0  26406-4 0  9990
2 22825 098.7149 192.6140 0009584 090.8326 029.6220 14.29899503143555
Epoch (UTC): 30 August 2015 11:02:40
Eccentricity: 0.0009584
inclination: 98.7149°
perigee height: 785 km
apogee height: 799 km
right ascension of ascending node: 192.6140°
argument of perigee: 90.8326°
revolutions per day: 14.29899503
mean anomaly at epoch: 29.6220°
orbit number at epoch: 14355

The dashed part of the orbit path shows where the satellite is in the earth's shadow,  

DLR